Airfield :
LOGIN :

Register | Disclaimer

   EN    FR    IT 

 










Legend :    VFR   Marginal VFR   IFR   Intensive IFR   Very Intensive IFR
Visi :
Ceiling :
>= 8 km
>= 3000ft
5 to 8 km
1000 to 3000 ft
1500m to 5 km
500 to 1000 ft
800 to 1500m
200 to 500 ft
< 800m
< 200 ft
Symbols :   Thunderstorms  Fog  Heavy snow  Heavy precipitations  Wind > 20 kt
SIGMETs :     Misc.  Thunderstorms  Icing  Turbulence  Mountain Waves  Volcanic Ashes







- Airport Elevation : 80 ft
- IATA code : LPL
- Download approach charts


EGGP - Liverpool John Lennon

CURRENT METAR :
  • 190150Z 19002KT CAVOK 11/10 Q1031

EXPIRED METARs :
  • 190120Z VRB02KT CAVOK 11/10 Q1031
  • 190050Z 30003KT CAVOK 12/11 Q1031
  • 190020Z 31004KT 290V350 CAVOK 12/11 Q1031
  • 182350Z 29004KT CAVOK 12/11 Q1031
  • 182320Z 29004KT CAVOK 12/11 Q1031

TAF TAF EGGP
Valid from the 19 at 00:00 until the 20 at 00:00 UTC


182254Z 1900/1924 30005KT 9999 FEW040
TEMPO 1904/1910 7000
PROB30 1905/1908 3500 BR
PROB30 1920/1924 8000
ATIS : +44 151 907 2000 (option 5 or ext 5150)
Met : +44 871 750 5150
No reported NOTAMs for that airfield.



MET'MAP, your aeronautical weather chart ! - Copyright ORBIFLY December 2007 - Disclaimer

ORBIFLY MET'MAP TEAM :

Programming & Development : Alexandra Zaïnal
Concept & Development : Baudouin d'Aumeries
Co-Development & Prog : Marc-Olivier Méhu
Technical & hardware support : Manuel Goepfert

Contact : metmap@orbifly.com




SOURCES & CREDITS :

   NOAA